Date,TemperatureHighF,TemperatureAvgF,TemperatureLowF,DewpointHighF,DewpointAvgF,DewpointLowF,HumidityHigh,HumidityAvg,HumidityLow,PressureMaxIn,PressureMinIn,WindSpeedMaxMPH,WindSpeedAvgMPH,GustSpeedMaxMPH,PrecipitationSumIn
2013-1-1,33,24,17,32,20,15,97,86,74,30.34,30.13,2,0,4,0.00
2013-1-2,30,21,12,21,16,10,93,83,64,30.35,30.25,0,0,0,0.00
2013-1-3,41,27,16,29,22,15,95,81,55,30.45,30.28,2,0,5,0.00
2013-1-4,42,29,21,26,23,19,95,78,49,30.50,30.36,1,0,3,0.00
2013-1-5,45,34,22,32,27,20,94,76,56,30.38,30.16,1,0,1,0.00
2013-1-6,41,33,21,33,25,19,92,73,52,30.44,30.14,3,1,7,0.00
2013-1-7,47,30,19,30,24,18,96,80,50,30.46,30.21,1,0,3,0.00
2013-1-8,56,39,24,36,28,22,95,68,32,30.27,30.14,1,0,2,0.00
2013-1-9,58,47,36,45,37,30,98,71,40,30.50,30.22,2,0,3,0.00
2013-1-10,56,46,41,56,42,32,99,87,59,30.49,29.81,3,1,5,0.00
2013-1-11,65,55,47,55,50,46,99,83,58,29.92,29.80,1,0,4,0.00
2013-1-12,59,47,32,52,42,30,97,84,55,29.98,29.84,2,0,4,0.00
2013-1-13,32,26,18,30,22,14,95,85,74,30.42,29.93,1,0,8,0.00
2013-1-14,28,20,14,17,14,11,93,78,50,30.57,30.42,1,0,2,0.00
2013-1-15,30,23,13,22,17,12,95,80,58,30.49,30.19,2,0,4,0.00
2013-1-16,44,29,17,25,20,16,95,72,38,30.22,30.08,2,0,5,0.00
2013-1-17,42,34,23,31,25,20,89,72,44,30.55,30.18,3,0,4,0.00
2013-1-18,56,37,20,30,24,18,95,65,33,30.56,30.19,1,0,4,0.00
2013-1-19,68,48,36,35,31,28,72,54,28,30.20,29.94,3,1,7,0.00
2013-1-20,48,34,26,32,17,9,77,50,30,30.38,30.16,2,1,4,0.00
2013-1-21,28,22,15,14,6,-3,71,51,31,30.46,30.34,3,1,7,0.00
2013-1-22,20,17,13,12,4,-1,84,58,43,30.56,30.43,2,0,4,0.00
2013-1-23,45,27,13,23,17,11,93,68,41,30.44,30.20,2,0,4,0.00
2013-1-24,29,23,16,16,9,3,72,56,45,30.66,30.29,5,2,9,0.00
2013-1-25,45,35,27,24,18,12,63,51,40,30.31,30.16,2,0,4,0.00
2013-1-26,40,32,27,23,18,14,84,58,34,30.44,30.28,2,0,3,0.00
2013-1-27,48,37,27,47,33,19,98,87,66,30.36,30.01,2,0,3,0.00
2013-1-28,74,60,47,63,57,46,99,89,64,30.02,29.87,1,0,4,0.00
2013-1-29,68,62,53,61,58,52,98,88,76,29.87,29.45,4,1,5,0.00
2013-1-30,53,40,28,52,36,17,98,84,63,29.97,29.39,5,2,11,0.00
2013-1-31,36,26,12,27,16,2,87,67,56,30.44,29.97,4,2,10,0.09
2013-2-1,31,20,8,15,5,0,73,54,34,30.58,30.31,3,0,5,0.00
2013-2-2,44,35,27,30,22,13,94,60,42,30.30,30.11,3,1,8,0.00
2013-2-3,37,31,26,30,23,16,97,75,45,30.25,30.06,4,1,7,0.09
2013-2-4,62,41,28,37,29,22,87,66,35,30.05,29.81,3,0,11,0.02
2013-2-5,59,38,24,35,29,22,95,72,37,30.18,29.93,4,0,7,0.00
2013-2-6,53,39,25,34,30,24,96,72,45,30.29,30.09,2,0,6,0.00
2013-2-7,57,44,34,48,38,30,96,79,57,30.09,29.88,2,0,5,0.04
2013-2-8,40,36,31,37,31,26,91,83,75,30.42,30.08,3,1,4,0.00
2013-2-9,43,35,30,36,29,26,94,77,60,30.42,30.07,3,1,5,0.16
2013-2-10,56,47,38,54,43,31,98,86,45,30.07,29.63,4,1,7,0.63
2013-2-11,52,42,29,32,27,25,88,58,37,30.19,29.81,4,2,10,0.00
2013-2-12,47,36,24,34,29,23,96,77,54,30.22,29.98,1,0,4,0.00
2013-2-13,56,44,37,34,31,26,84,64,32,29.99,29.84,3,0,7,0.00
2013-2-14,57,46,34,36,32,29,87,61,34,30.10,29.86,4,1,6,0.00
2013-2-15,42,35,27,33,20,12,80,56,31,30.31,30.10,3,1,6,0.00
2013-2-16,39,28,20,18,13,8,78,56,28,30.33,30.22,2,0,5,0.00
2013-2-17,50,36,20,33,23,14,84,62,35,30.24,29.95,3,1,7,0.00
2013-2-18,57,46,34,48,40,24,94,79,66,29.95,29.59,4,1,9,0.11
2013-2-19,38,31,24,25,16,10,75,55,36,30.36,29.95,4,2,9,0.00
2013-2-20,28,24,18,15,12,9,74,61,51,30.47,30.35,3,1,4,0.00
2013-2-21,31,26,22,30,23,14,96,88,70,30.38,29.89,7,3,14,0.00
2013-2-22,34,28,20,26,22,18,94,79,65,30.14,30.05,2,0,3,0.05
2013-2-23,40,26,15,23,19,13,94,76,46,30.13,30.04,2,0,3,0.13
2013-2-24,45,32,16,29,24,15,95,73,48,30.18,30.08,3,0,4,0.10
2013-2-25,45,36,25,34,29,23,95,80,56,30.11,29.63,5,2,7,0.23
2013-2-26,44,37,34,42,36,32,97,94,88,29.72,29.38,6,2,9,0.59
2013-2-27,36,33,32,33,31,28,94,90,85,29.95,29.72,3,1,14,0.06
2013-2-28,36,33,32,31,29,28,93,86,78,30.15,29.94,2,0,6,0.00
2013-3-1,34,31,29,31,28,24,94,90,83,30.24,30.12,1,0,3,0.00
2013-3-2,34,29,22,25,21,18,88,74,55,30.31,30.24,2,0,7,0.00
2013-3-3,40,30,17,27,21,15,94,71,45,30.28,30.08,2,0,3,0.01
2013-3-4,55,44,35,44,33,26,86,67,47,30.09,29.79,4,1,8,0.00
2013-3-5,45,36,32,36,30,23,95,79,64,30.17,29.82,4,2,9,0.12
2013-3-6,40,33,24,26,24,21,91,70,55,30.41,30.17,3,1,6,0.00
2013-3-7,49,34,21,31,26,19,95,75,46,30.47,30.35,2,0,5,0.00
2013-3-8,54,42,27,34,30,26,94,67,42,30.48,30.24,4,1,9,0.00
2013-3-9,71,53,40,42,36,31,91,57,27,30.24,29.82,4,1,8,0.16
2013-3-10,59,54,46,53,48,42,97,84,55,29.83,29.67,2,0,4,1.10
2013-3-11,46,36,34,45,32,27,95,83,71,30.03,29.75,4,1,9,0.00
2013-3-12,53,39,29,30,25,22,85,61,33,30.26,30.03,6,1,8,0.00
2013-3-13,35,32,29,24,21,18,71,65,61,30.38,30.26,3,1,7,0.00
2013-3-24,33,33,33,32,32,32,96,96,96,29.68,29.68,0,0,0,0.00
2013-3-25,37,32,29,32,28,25,95,85,68,30.27,29.91,2,0,3,0.12
2013-3-26,42,34,26,27,25,22,89,70,46,30.44,30.28,2,0,8,0.30
2013-3-27,51,35,21,31,26,20,96,71,39,30.49,30.37,2,0,4,0.02
2013-3-28,58,47,37,40,33,27,75,60,45,30.44,30.29,4,1,8,0.00
2013-3-29,63,51,40,47,43,38,94,75,51,30.32,30.22,3,1,5,0.01
2013-3-30,54,45,36,48,43,35,98,92,71,30.25,29.96,2,0,4,0.12
2013-3-31,70,57,48,52,43,32,97,67,25,29.96,29.87,3,0,6,0.00
2013-4-1,53,44,33,38,26,19,73,50,29,30.29,29.96,3,1,6,0.00
2013-4-2,50,38,26,27,20,12,87,55,22,30.42,30.29,3,0,4,0.00
2013-4-3,52,42,28,27,24,20,89,53,30,30.47,30.31,5,1,9,0.00
2013-4-4,62,46,28,34,25,20,91,50,21,30.31,30.08,4,1,7,0.00
2013-4-5,70,51,32,39,33,30,91,55,24,30.24,30.09,3,0,4,0.00
2013-4-6,77,62,46,44,39,34,74,45,24,30.09,29.75,3,1,7,0.00
2013-4-7,81,67,52,58,50,45,80,56,31,29.94,29.82,4,1,6,0.01
2013-4-8,80,69,58,60,57,53,84,67,47,29.89,29.75,2,1,4,0.01
2013-4-9,80,71,61,63,60,56,86,69,56,29.91,29.81,3,1,6,0.00
2013-4-10,87,71,60,67,64,59,97,79,50,29.82,29.60,4,1,6,1.24
2013-4-11,61,47,40,60,42,31,97,81,65,29.80,29.66,3,1,8,0.01
2013-4-12,48,42,36,34,32,29,87,67,53,30.08,29.78,4,1,7,0.00
2013-4-13,65,49,31,43,35,30,96,64,33,30.14,29.94,2,1,4,0.00
2013-4-14,82,63,43,55,47,40,92,60,27,29.94,29.63,3,1,8,0.00
2013-4-15,73,64,54,62,57,51,94,79,63,29.91,29.75,2,0,4,0.00
2013-4-16,54,48,46,51,46,45,97,93,84,30.19,29.92,2,1,5,0.71
2013-4-17,87,66,49,70,58,46,98,78,49,30.16,29.71,2,1,5,0.00
2013-4-18,75,59,42,68,55,34,98,87,71,29.81,29.59,4,1,7,2.47
2013-4-19,53,44,35,34,28,23,87,56,33,30.13,29.80,4,2,9,0.00
2013-4-20,58,45,30,37,30,25,97,60,29,30.38,30.13,3,0,6,0.00
2013-4-21,65,53,42,42,37,31,71,55,41,30.46,30.27,3,1,6,0.00
2013-4-22,75,58,39,49,42,37,94,58,28,30.31,30.00,4,1,7,0.00
2013-4-23,58,50,40,56,48,39,98,92,70,30.07,29.90,1,0,4,0.87
2013-4-24,58,45,38,39,35,25,97,72,31,30.31,30.04,2,1,6,0.09
2013-4-25,69,51,34,42,34,29,97,58,24,30.42,30.30,2,0,6,0.00
2013-4-26,60,52,44,51,45,38,91,78,60,30.43,30.30,1,0,5,0.01
2013-4-27,54,52,49,53,50,46,98,96,89,30.34,29.96,2,0,4,0.29
2013-4-28,58,54,47,52,51,46,98,91,79,30.00,29.93,2,0,4,0.01
2013-4-29,83,62,44,62,54,43,99,78,44,29.99,29.81,3,0,5,0.00
2013-4-30,91,73,56,63,58,49,97,64,26,29.95,29.83,3,0,8,0.00
2013-5-1,86,70,54,62,58,51,97,68,38,30.08,29.95,3,1,7,0.00
2013-5-2,73,60,45,63,55,43,97,87,57,30.17,30.07,2,0,5,0.61
2013-5-3,45,42,40,44,40,38,97,96,95,30.12,29.87,0,0,0,0.69
2013-5-4,54,45,39,43,40,38,98,84,55,30.04,29.90,0,0,0,0.00
2013-5-5,60,52,43,58,50,41,98,95,84,30.04,29.91,0,0,0,0.17
2013-5-6,67,60,52,57,54,51,97,83,62,30.01,29.93,1,0,3,0.00
2013-5-7,76,64,55,60,56,54,98,80,48,30.07,30.00,2,0,4,0.00
2013-5-8,85,66,50,62,55,49,98,72,30,30.07,29.98,2,0,3,0.00
2013-5-9,81,68,61,66,61,57,95,79,46,30.01,29.85,3,0,5,0.02
2013-5-10,69,62,57,61,58,52,97,86,68,30.02,29.84,2,0,6,0.13
2013-5-11,72,60,49,55,47,34,94,66,29,30.19,30.01,3,1,6,0.00
2013-5-12,64,52,40,42,34,25,92,57,24,30.27,30.17,2,0,6,0.00
2013-5-13,75,57,38,50,40,32,97,60,28,30.28,30.06,2,0,4,0.00
2013-5-14,95,75,53,58,53,48,90,53,22,30.07,29.81,3,1,5,0.00
2013-5-15,94,79,68,66,59,51,71,52,34,29.96,29.81,2,0,3,0.00
2013-5-16,84,73,64,68,63,57,89,73,42,29.94,29.85,2,0,4,0.00
2013-5-17,79,69,63,67,64,60,95,83,64,29.97,29.90,1,0,3,0.12
2013-5-18,83,72,60,68,64,59,98,80,58,30.02,29.87,2,0,3,0.00
2013-5-19,91,79,69,75,69,64,90,72,48,29.90,29.69,2,0,5,0.00
2013-5-20,81,72,63,71,67,61,97,84,67,29.92,29.69,4,0,9,1.01
2013-5-21,82,69,62,69,64,62,99,85,58,29.81,29.70,2,0,4,0.02
2013-5-22,76,68,62,63,59,55,95,73,51,29.89,29.68,3,1,6,0.00
2013-5-23,68,61,56,60,55,50,96,81,64,30.24,29.89,2,0,8,0.00
2013-5-24,70,58,46,52,43,32,96,63,32,30.43,30.24,3,0,4,0.00
2013-5-25,70,59,46,58,52,45,96,79,56,30.37,30.14,1,0,3,0.02
2013-5-26,84,71,57,68,61,53,89,71,55,30.20,30.00,2,0,3,0.00
2013-5-27,86,72,65,74,65,60,96,79,59,30.01,29.74,2,0,5,0.71
2013-5-28,86,74,65,72,67,64,97,79,54,29.90,29.80,2,0,5,0.03
2013-5-29,89,78,66,69,65,61,95,67,44,29.96,29.81,2,1,7,0.00
2013-5-30,83,75,64,73,68,63,97,81,66,29.92,29.80,2,1,6,1.02
2013-5-31,80,71,64,73,67,63,98,88,73,29.91,29.72,3,1,5,2.57
2013-6-1,79,70,63,70,64,58,98,83,59,29.89,29.76,3,1,5,0.46
2013-6-2,67,64,58,61,58,54,90,82,75,30.03,29.89,1,0,3,0.00
2013-6-3,73,63,57,56,53,47,93,72,45,30.11,29.99,1,0,3,0.00
2013-6-4,75,64,52,60,56,50,97,77,52,30.11,30.00,2,0,2,0.00
2013-6-5,83,70,58,66,62,57,97,79,44,30.03,29.85,1,0,2,0.06
2013-6-6,79,69,62,65,62,56,97,79,54,29.87,29.83,2,0,4,0.00
2013-6-7,76,64,57,63,58,56,95,82,58,29.92,29.87,2,0,3,0.00
2013-6-8,82,68,55,62,58,54,97,74,41,29.99,29.90,1,0,3,0.00
2013-6-9,78,66,59,66,62,58,97,87,62,29.95,29.80,3,0,4,0.08
2013-6-10,80,69,62,66,63,61,98,82,57,29.92,29.79,3,0,7,0.00
2013-6-11,94,76,59,77,68,58,98,78,47,29.98,29.85,2,0,5,0.00
2013-6-14,83,82,82,63,62,61,52,50,48,29.98,29.97,0,0,1,0.00
2013-6-15,91,76,65,73,67,63,96,75,50,30.11,29.93,2,0,4,0.04
2013-6-16,86,74,68,75,70,67,98,89,63,30.03,29.91,1,0,3,0.26
2013-6-17,86,73,66,75,69,65,98,90,57,29.96,29.86,2,0,5,0.70
2013-6-18,89,74,62,72,66,62,99,79,46,29.98,29.90,1,0,4,0.00
2013-6-19,85,73,63,69,65,62,98,79,49,30.07,29.97,1,0,2,0.00
2013-6-20,92,78,64,72,68,63,98,75,48,30.12,30.03,1,0,5,0.00
2013-6-21,92,86,77,76,73,71,83,65,54,30.11,30.00,1,0,5,0.00
2013-6-22,89,75,67,77,70,64,94,85,51,30.09,29.99,4,0,11,0.05
2013-6-23,91,75,68,76,69,65,98,83,54,30.08,29.94,2,0,4,0.81
2013-6-24,94,79,67,77,71,66,99,80,49,30.08,29.93,1,0,4,0.01
2013-6-25,95,83,72,77,73,70,94,73,50,29.97,29.78,3,0,7,0.00
2013-6-26,94,79,73,78,74,70,98,86,58,29.87,29.72,2,0,13,0.34
2013-6-27,94,80,70,77,72,68,98,78,43,29.89,29.76,1,0,3,0.00
2013-6-28,89,79,70,74,67,56,96,70,36,29.85,29.71,2,0,7,0.02
2013-6-29,82,71,65,68,63,60,96,77,53,29.74,29.65,3,0,7,0.06
2013-6-30,75,68,63,68,64,62,97,88,74,29.92,29.74,2,0,3,0.07
2013-7-1,76,70,63,65,59,54,92,70,52,29.97,29.90,2,0,3,0.00
2013-7-2,71,65,61,62,60,57,97,84,61,30.03,29.94,1,0,2,0.32
2013-8-19,88,78,68,67,65,64,90,68,46,30.07,30.03,1,0,3,0.00
2013-8-20,91,75,63,70,66,62,97,76,42,30.12,30.03,2,0,4,0.00
2013-8-21,93,78,66,70,67,62,97,73,37,30.14,30.02,1,0,4,0.00
2013-8-22,92,79,68,73,70,66,96,76,48,30.11,30.00,2,0,4,0.00
2013-8-23,89,63,71,75,36,-100,96,62,50,30.10,-32.77,2,-205,3,0.00
2013-8-24,93,32,72,69,-36,-100,85,23,42,30.19,-32.77,1,-615,3,0.00
2013-8-25,94,78,64,73,68,63,97,73,40,30.26,30.16,2,0,4,0.00
2013-8-26,97,82,72,76,72,69,97,76,43,30.22,30.06,2,0,4,0.00
2013-8-27,96,81,71,75,70,66,96,73,38,30.09,29.97,1,0,3,0.00
2013-8-28,97,81,68,71,68,65,96,69,37,30.05,29.96,2,0,4,0.00
2013-8-29,100,84,71,75,71,68,94,70,37,30.04,29.93,2,0,3,0.00
2013-8-30,100,84,72,77,73,68,96,72,37,29.97,29.82,2,0,3,0.00
2013-8-31,103,87,74,75,72,66,94,65,32,29.84,29.71,2,0,5,0.00
2013-9-1,92,82,75,75,72,69,90,73,54,29.83,29.76,3,0,4,0.00
2013-9-2,86,76,67,72,64,60,90,67,43,29.96,29.83,2,0,6,0.00
2013-9-3,86,71,58,62,59,55,96,71,36,30.08,29.96,2,0,4,0.00
2013-9-4,90,71,57,64,60,56,96,72,35,30.17,30.08,1,0,4,0.00
2013-9-5,90,73,59,66,62,58,96,72,39,30.21,30.12,1,0,2,0.00
2013-9-6,91,75,62,68,64,61,96,73,41,30.19,30.03,1,0,3,0.00
2013-9-7,98,78,63,70,65,61,96,70,32,30.06,29.91,2,0,5,0.00
2013-9-8,85,76,71,77,71,68,98,87,75,30.02,29.90,1,0,3,0.24
2013-9-9,102,84,72,76,71,66,98,71,33,29.97,29.89,2,0,6,0.00
2013-9-10,102,83,71,74,68,59,97,65,26,30.08,29.97,2,0,4,0.00
2013-9-11,98,81,68,72,68,62,96,68,31,30.13,30.01,2,0,4,0.00
2013-9-12,86,77,68,72,65,51,95,69,40,30.08,29.97,2,0,3,0.00
2013-9-13,76,65,54,58,52,48,91,64,40,30.14,30.06,2,0,5,0.00
2013-9-14,81,62,49,51,47,41,94,63,26,30.19,30.04,1,0,3,0.00
2013-9-15,85,67,52,65,56,48,93,71,41,30.12,29.99,1,0,4,0.00
2013-9-16,72,66,61,66,59,55,90,79,61,30.28,30.11,3,1,4,0.00
2013-9-17,73,66,60,65,60,55,91,82,72,30.26,30.08,1,0,4,0.00
2013-9-18,90,73,66,75,68,63,98,86,51,30.09,29.96,2,0,4,0.21
2013-9-19,93,80,70,74,72,69,97,79,48,30.00,29.85,2,0,5,0.03
2013-9-20,78,69,60,72,67,59,98,94,80,29.93,29.87,1,0,1,0.40
2013-9-21,73,61,53,59,54,51,98,80,48,29.99,29.91,2,0,7,0.00
2013-9-22,77,60,47,58,52,46,98,77,39,30.04,29.94,2,0,3,0.00
2013-9-23,78,63,49,56,52,48,98,71,39,30.06,29.92,2,0,4,0.00
2013-9-24,84,67,53,67,59,52,95,78,50,29.97,29.78,2,0,4,0.00
2013-9-25,82,70,63,68,65,62,97,83,55,29.88,29.79,1,0,3,0.00
2013-9-26,63,60,59,61,59,58,97,96,94,29.98,29.87,0,0,0,0.00
2013-10-10,73,73,73,63,63,63,70,70,70,30.15,30.15,0,0,0,0.00